EW0636 Weather Reports


Display with metric or nautical units.
time (UTC)temp
F
wind
direction
speed
MPH
gust
MPH
rain 1hr
in
rain 24hr
in
rain mn
in
humidity
%
barometer
mb
20260504081505 53 280 0.0 2.0 0.00 0.01 0.00 72 1011.4
20260504044537 52 100 0.0 0.0 0.00 0.01 0.01 74 1013.4
20260504043039 52 100 0.0 0.0 0.00 0.01 0.01 73 1013.4
20260504041525 53 303 0.0 0.0 0.00 0.01 0.01 71 1013.4
20260504040022 54 303 0.0 0.0 0.00 0.01 0.01 68 1013.6
20260504034517 55 303 0.0 0.0 0.00 0.01 0.01 67 1013.9
20260504033012 56 303 0.0 0.0 0.00 0.01 0.01 62 1014.0
20260504031510 57 303 0.0 0.0 0.00 0.01 0.01 61 1014.1
20260504030004 58 309 0.0 2.0 0.00 0.01 0.01 59 1013.9
20260504024600 58 285 0.0 3.0 0.00 0.01 0.01 58 1013.5
20260504023055 58 311 0.0 3.0 0.00 0.01 0.01 58 1013.4
20260504021549 58 21 0.0 3.0 0.00 0.01 0.01 58 1013.0
20260504020056 59 5 0.0 2.0 0.00 0.01 0.01 58 1013.0
20260504014549 58 237 0.0 2.0 0.00 0.01 0.01 60 1013.2
20260504013040 59 271 0.0 0.0 0.00 0.01 0.01 61 1013.5
20260504011545 59 302 0.0 0.0 0.00 0.01 0.01 58 1013.7
20260504010039 60 292 0.0 2.0 0.00 0.01 0.01 54 1013.8
20260504004539 61 288 0.0 2.0 0.00 0.01 0.01 53 1013.5
20260504003037 62 310 0.0 2.0 0.00 0.01 0.01 51 1013.5
20260504001535 63 285 0.0 4.0 0.00 0.01 0.01 49 1013.2
20260504000028 64 327 2.0 6.0 0.00 0.01 0.01 47 1013.6
20260503234523 65 312 0.0 6.0 0.00 0.01 0.01 46 1013.7
20260503233018 66 242 2.0 5.0 0.00 0.01 0.01 46 1013.9
20260503231520 67 334 2.0 6.0 0.00 0.01 0.01 46 1014.1
20260503230011 67 318 2.0 7.0 0.00 0.01 0.01 42 1014.3
20260503224505 67 339 2.0 8.0 0.00 0.01 0.01 43 1014.6
20260503223104 68 180 1.0 8.0 0.00 0.01 0.01 44 1014.6
20260503221601 68 331 1.0 12.0 0.00 0.01 0.01 43 1015.2
20260503220052 67 335 1.0 9.0 0.00 0.01 0.01 45 1015.3
20260503214549 67 56 3.0 10.0 0.00 0.08 0.01 43 1015.5
20260503213043 67 327 3.0 12.0 0.00 0.08 0.01 43 1015.7
20260503211549 67 260 3.0 10.0 0.00 0.08 0.01 43 1015.9
20260503210034 67 310 3.0 9.0 0.00 0.08 0.01 43 1016.3
20260503204533 67 343 4.0 12.0 0.00 0.24 0.01 44 1016.5
20260503203024 66 327 1.0 12.0 0.00 0.24 0.01 47 1016.8
20260503201520 65 346 3.0 14.0 0.00 0.24 0.01 44 1017.1
20260503200016 66 309 3.0 10.0 0.00 0.24 0.01 46 1017.4
20260503194512 66 213 2.0 12.0 0.00 0.24 0.01 46 1017.8
20260503193007 65 260 2.0 8.0 0.00 0.24 0.01 46 1018.2
20260503191509 65 326 0.0 13.0 0.00 0.24 0.01 46 1018.5
20260503184611 63 315 1.0 11.0 0.00 0.24 0.01 49 1018.9
20260503183050 63 282 2.0 11.0 0.00 0.24 0.01 50 1019.1
20260503181607 63 230 1.0 7.0 0.00 0.24 0.01 46 1019.2
20260503180051 62 278 1.0 10.0 0.00 0.24 0.01 47 1019.3
20260503174545 62 302 1.0 5.0 0.00 0.24 0.01 49 1019.7
20260503173041 61 9 2.0 9.0 0.00 0.24 0.01 51 1019.8
20260503171527 61 259 3.0 10.0 0.00 0.24 0.01 49 1020.1